Location: Caltech
(34.1382°N, 118.1253°W)
Time: 02:11:36
(UTC-07:00)

SO-67 - Visible Passes

Search period start: 26 March 2017 00:00
Search period end: 05 April 2017 00:00
Orbit: 407 x 412 km, 97.1° (Epoch: 24 March)

Date Brightness Start Highest point End Pass type
(mag) Time Alt. Az. Time Alt. Az. Time Alt. Az.
27 Mar ? 19:52:02 10° SW 19:54:05 16° W 19:56:09 10° NW visible
29 Mar ? 19:49:08 10° SW 19:51:21 18° W 19:53:35 10° NW visible
31 Mar ? 19:46:12 10° SW 19:48:34 19° W 19:50:56 10° NW visible
02 Apr ? 19:43:15 10° SSW 19:45:44 21° W 19:48:14 10° NW visible
04 Apr ? 19:40:16 10° SSW 19:42:51 24° W 19:45:28 10° NW visible
